Home   Weather   Ivalo   Past weeks

Flag for Finland Past Weather in Ivalo, Finland — Yesterday and Last 2 Weeks

Now
14 °F

Snow flurries. Overcast.


Feels Like: 14 °F
Forecast: -7 / 16 °F
Wind: 1 mph from North

Location: Ivalo

Current Time: Dec 4, 2016 at 2:32:19 pm

Latest Report: Dec 4, 2016 at 1:50 pm


Visibility: 3 mi

Pressure: 29.62 "Hg

Humidity: 92%

Dew Point: 12 °F

Location of IvaloLocation

Past Weather in Ivalo — Graph

°F

Ivalo Temperature Yesterday

Maximum temperature yesterday: 14 °F (at 4:20 am)
Minimum temperature yesterday: -15 °F (at 11:20 pm)
Average temperature yesterday: -1 °F

High & Low Weather Summary for the Past Weeks

 TemperatureHumidityPressure
High36 °F (Nov 19, 1:20 pm)100% (Nov 21, 6:20 pm)30.01 "Hg (Nov 21, 6:20 pm)
Low-17 °F (Dec 4, 1:50 am)76% (Dec 3, 5:20 pm)29.06 "Hg (Nov 30, 3:20 pm)
Average21 °F90%29.63 "Hg
* Reported Nov 19 12:20 pm — Dec 4 12:50 pm, Ivalo, Weather by CustomWeather, © 2016

Note: Actual official high and low records may vary slightly from our data, if they occured in-between our weather recording intervals... More about our weather records

Advertising

Ivalo Weather History for the Previous 24 Hours

Scroll right to see more
 ConditionsComfort  
Time TempWeatherWind HumidityBarometerVisibility
12:50 pm
Sun, Dec 4
12 °FSnow flurries. Overcast.7 mph92%29.65 "HgN/A
12:20 pm-4 °FSunny.No wind84%29.68 "Hg10 mi
11:50 am-6 °FSunny.1 mph84%29.71 "Hg10 mi
11:20 am-8 °FSunny.No wind84%29.71 "Hg10 mi
10:50 am-9 °FSunny.1 mph77%29.74 "Hg10 mi
10:20 am-11 °FSunny.2 mph84%29.74 "Hg10 mi
9:50 am-11 °FSunny.2 mph76%29.77 "Hg10 mi
9:20 am-13 °FSunny.3 mph76%29.77 "Hg10 mi
8:50 am-15 °FSunny.3 mph76%29.80 "Hg10 mi
8:20 am-15 °FSunny.3 mph76%29.80 "Hg10 mi
7:50 am-15 °FSunny.3 mph76%29.83 "Hg10 mi
7:20 am-15 °FSunny.2 mph76%29.83 "Hg10 mi
6:50 am-15 °FSunny.No wind76%29.86 "Hg10 mi
6:20 am-15 °FSunny.No wind76%29.89 "Hg10 mi
5:50 am-15 °FClear.No wind76%29.89 "Hg10 mi
5:20 am-17 °FClear.2 mph83%29.89 "Hg10 mi
4:50 am-15 °FClear.3 mph76%29.92 "Hg10 mi
4:20 am-15 °FClear.3 mph83%29.92 "Hg10 mi
3:50 am-15 °FClear.7 mph76%29.92 "Hg10 mi
3:20 am-17 °FClear.5 mph83%29.95 "Hg10 mi
2:50 am-17 °FClear.5 mph83%29.95 "Hg10 mi
2:20 am-15 °FClear.6 mph76%29.95 "Hg10 mi
1:50 am-17 °FClear.2 mph83%29.98 "Hg10 mi
1:20 am-15 °FClear.3 mph76%29.98 "Hg10 mi
12:50 am-15 °FSunny.3 mph83%29.98 "Hg10 mi
12:20 am-15 °FSunny.5 mph76%30.01 "Hg10 mi
11:50 pm
Sat, Dec 3
-15 °FPassing clouds.5 mph76%30.01 "HgN/A
11:20 pm-15 °FClear.3 mph83%30.01 "Hg10 mi
10:50 pm-13 °FClear.6 mph83%30.01 "Hg10 mi
10:20 pm-13 °FClear.5 mph76%30.01 "Hg10 mi
9:50 pm-13 °FClear.6 mph76%30.01 "Hg10 mi
9:20 pm-13 °FClear.5 mph83%30.01 "Hg10 mi
8:50 pm-11 °FClear.3 mph76%30.01 "Hg10 mi
8:20 pm-11 °FClear.8 mph76%30.01 "Hg10 mi
7:50 pm-11 °FClear.5 mph76%30.01 "Hg10 mi
7:20 pm-11 °FClear.3 mph84%30.01 "Hg10 mi
6:50 pm-11 °FSunny.6 mph84%30.01 "Hg10 mi
6:20 pm-11 °FSunny.3 mph84%30.01 "Hg10 mi
5:20 pm-11 °FSunny.3 mph76%30.01 "Hg10 mi
4:50 pm-9 °FSunny.1 mph84%30.01 "Hg10 mi
4:20 pm-9 °FSunny.5 mph77%30.01 "Hg10 mi
3:50 pm-9 °FLight snow. Sunny.1 mph77%30.01 "HgN/A
3:20 pm-9 °FSunny.6 mph84%30.01 "Hg10 mi
2:50 pm-9 °FSunny.5 mph84%30.01 "Hg10 mi
2:20 pm-8 °FSunny.3 mph84%30.01 "Hg10 mi
Weather by CustomWeather, © 2016

See weather overviewHow to use our weather pages